Weather History for Bellingham, WA

Change the Weather History Date:

Thursday, February 21, 2013

  Actual Average Record
Temperature  
Mean Temperature 40 °F 41 °F  
Max Temperature 46 °F 49 °F 61 °F (1958)
Min Temperature 35 °F 33 °F 23 °F (1952)
Degree Days  
Heating Degree Days 24 24  
Month to date heating degree days 515  
Cooling Degree Days 0 0  
Month to date cooling degree days 0  
Year to date cooling degree days 0  
Moisture  
Dew Point 37 °F    
Average Humidity 76    
Maximum Humidity 87    
Minimum Humidity 71    
Precipitation  
Precipitation 0.15 in 0.10 in 1.65 in (2002)
Month to date precipitation 2.30  
Year to date precipitation 6.97  
Sea Level Pressure  
Sea Level Pressure 30.00 in    
Wind  
Wind Speed 8 mph (SSE)    
Max Wind Speed 21 mph    
Max Gust Speed 29 mph    
Visibility 9 miles    
Events Rain    
T = Trace of Precipitation, MM = Missing Value Source: NWS Daily Summary

Daily Weather History Graph

Daily Weather History Graph

Search for Another Location

Airport:

Trip Planner

Search our weather history database for the weather conditions in past years. The results will help you decide how hot, cold, wet, or windy it might be!

Date:

Astronomy

Feb. 21, 2013 Rise Set
Actual Time 7:06 AM PST 5:41 PM PST
Civil Twilight 6:34 AM PST 6:13 PM PST
Nautical Twilight 5:58 AM PST 6:50 PM PST
Astronomical Twilight 5:21 AM PST 7:26 PM PST
Moon 1:48 PM PST (2/21) 4:28 AM PST (2/21)
Length of Visible Light 11h 39m
Length of Day
10h 34m
Waxing Gibbous, 84% of the Moon is Illuminated
Feb 21
Waxing Gibbous
Feb 25
Full
Mar 4
Last Quarter
Mar 11
New
Mar 19
First Quarter

Hourly Weather History & Observations

Time (PST) Temp. Windchill Dew Point Humidity Pressure Visibility Wind Dir Wind Speed Gust Speed Precip Events Conditions
12:00 AM 35.6 °F - 32.0 °F 87% 30.00 in 1.8 mi Calm Calm - N/A   Mostly Cloudy
12:02 AM 35.6 °F - 32.0 °F 87% 30.00 in 2.0 mi Calm Calm - N/A   Mostly Cloudy
12:14 AM 35.6 °F 32.8 °F 30.2 °F 81% 30.00 in 3.0 mi North 3.5 mph - N/A   Overcast
12:53 AM 37.9 °F 35.5 °F 34.0 °F 86% 30.04 in 3.0 mi NNW 3.5 mph - N/A   Overcast
1:23 AM 37.4 °F 34.9 °F 33.8 °F 87% 30.00 in 4.0 mi Variable 3.5 mph - N/A   Overcast
1:53 AM 39.0 °F - 34.0 °F 82% 30.03 in 6.0 mi Calm Calm - N/A   Haze
2:53 AM 39.2 °F - 33.8 °F 81% 29.99 in 4.0 mi Calm Calm - N/A   Haze
3:53 AM 46.0 °F 41.4 °F 37.0 °F 71% 30.00 in 10.0 mi South 9.2 mph 19.6 mph N/A   Overcast
4:53 AM 46.0 °F 39.9 °F 37.0 °F 71% 30.00 in 10.0 mi SSE 13.8 mph - N/A   Overcast
5:10 AM 46.4 °F 40.4 °F 37.4 °F 71% 29.97 in 10.0 mi SSE 13.8 mph 20.7 mph 0.00 in Rain Light Rain
5:53 AM 45.0 °F 39.7 °F 37.9 °F 76% 30.00 in 10.0 mi SSE 10.4 mph - 0.01 in Rain Light Rain
6:09 AM 44.6 °F 39.7 °F 37.4 °F 76% 29.98 in 10.0 mi SSE 9.2 mph - 0.00 in Rain Light Rain
6:53 AM 45.0 °F 40.1 °F 37.0 °F 74% 30.01 in 10.0 mi SSE 9.2 mph 19.6 mph 0.02 in Rain Light Rain
7:53 AM 44.1 °F 37.7 °F 37.9 °F 79% 30.01 in 9.0 mi SSE 12.7 mph 23.0 mph 0.02 in Rain Light Rain
8:53 AM 45.0 °F 39.7 °F 39.0 °F 80% 30.02 in 9.0 mi SSE 10.4 mph - 0.04 in Rain Light Rain
9:53 AM 45.0 °F 38.2 °F 39.0 °F 80% 30.02 in 9.0 mi SSE 15.0 mph 20.7 mph 0.01 in Rain Light Rain
10:53 AM 46.0 °F 39.3 °F 37.9 °F 73% 30.01 in 10.0 mi SSE 16.1 mph 20.7 mph 0.01 in Rain Light Rain
11:12 AM 46.4 °F 41.9 °F 37.4 °F 71% 29.98 in 10.0 mi SSE 9.2 mph 20.7 mph 0.00 in Rain Light Rain
11:53 AM 46.0 °F 41.4 °F 39.0 °F 76% 30.00 in 10.0 mi SE 9.2 mph - 0.02 in Rain Light Rain
12:51 PM 46.4 °F 38.7 °F 37.4 °F 71% 29.97 in 10.0 mi SSE 20.7 mph 28.8 mph 0.01 in Rain Light Rain
12:53 PM 46.0 °F 39.0 °F 37.9 °F 73% 30.00 in 10.0 mi SSE 17.3 mph 28.8 mph 0.01 in Rain Light Rain
1:18 PM 46.4 °F 39.8 °F 39.2 °F 76% 29.97 in 10.0 mi SSE 16.1 mph 28.8 mph 0.01 in   Overcast
1:53 PM 46.9 °F - 39.0 °F 74% 29.99 in 10.0 mi SSE 18.4 mph 27.6 mph 0.01 in   Overcast
2:21 PM 46.4 °F 39.8 °F 37.4 °F 71% 29.97 in 10.0 mi SSE 16.1 mph 25.3 mph N/A   Overcast
2:53 PM 46.9 °F - 37.9 °F 71% 30.00 in 10.0 mi SSE 16.1 mph 21.9 mph N/A   Overcast
3:27 PM 46.4 °F 39.2 °F 37.4 °F 71% 29.98 in 10.0 mi SSE 18.4 mph 24.2 mph N/A   Overcast
3:53 PM 46.9 °F - 37.9 °F 71% 30.00 in 10.0 mi SSE 17.3 mph - N/A   Overcast
4:53 PM 46.9 °F - 37.9 °F 71% 30.01 in 10.0 mi SSE 16.1 mph 21.9 mph N/A   Mostly Cloudy
5:53 PM 46.9 °F - 37.9 °F 71% 30.03 in 10.0 mi SSE 12.7 mph 23.0 mph N/A   Overcast
6:53 PM 46.9 °F - 37.9 °F 71% 30.02 in 10.0 mi SSE 12.7 mph - N/A   Overcast
7:53 PM 46.4 °F 41.1 °F 39.2 °F 76% 30.00 in 10.0 mi SSE 11.5 mph 20.7 mph N/A   Overcast
8:45 PM 46.4 °F 41.1 °F 39.2 °F 76% 30.02 in 10.0 mi South 11.5 mph - N/A   Overcast
8:53 PM 46.9 °F - 39.0 °F 74% 30.04 in 10.0 mi South 15.0 mph 19.6 mph N/A   Overcast
9:53 PM 46.9 °F - 39.0 °F 74% 30.04 in 10.0 mi South 10.4 mph 19.6 mph 0.00 in Rain Light Rain
11:24 PM 46.4 °F 41.5 °F 39.2 °F 76% 30.01 in 10.0 mi South 10.4 mph - 0.00 in Rain Light Rain
11:53 PM 46.9 °F - 39.0 °F 74% 30.03 in 10.0 mi SSE 10.4 mph 18.4 mph 0.00 in   Overcast